Total_Precipitation_Accumulation
0.87 0.93 0.91 0.95 1.05 1.34 1.55 1.48 1.30 1.28 1.28 1.23 1.14 1.19 1.33 1.46 1.56 1.64 1.72 1.75 1.76 1.87 1.82 1.75 1.81 1.89 2.09 2.04 1.99 1.91 1.78 1.62 1.48 1.25 0.91 0.69 0.64 0.57 0.52 0.41 0.32 0.27 0.21
0.70 0.76 0.83 0.83 0.92 1.05 1.17 1.19 1.12 1.03 0.98 1.01 1.04 1.03 1.11 1.25 1.33 1.34 1.41 1.47 1.52 1.61 1.67 1.60 1.60 1.65 1.75 1.92 1.98 1.93 1.88 1.74 1.62 1.49 1.17 0.87 0.69 0.61 0.57 0.51 0.40 0.32 0.26
0.63 0.68 0.75 0.77 0.79 0.81 0.82 0.76 0.79 0.81 0.85 0.87 0.98 1.04 1.10 1.14 1.29 1.30 1.27 1.27 1.33 1.37 1.47 1.53 1.56 1.58 1.58 1.66 1.63 1.68 1.74 1.81 1.78 1.62 1.40 1.12 0.91 0.72 0.62 0.57 0.50 0.45 0.37
0.74 0.80 0.85 0.86 0.85 0.84 0.82 0.78 0.77 0.79 0.85 0.93 1.09 1.16 1.17 1.17 1.15 1.19 1.22 1.21 1.15 1.11 1.15 1.19 1.30 1.41 1.44 1.55 1.51 1.46 1.52 1.65 1.83 1.81 1.61 1.29 1.09 0.93 0.78 0.72 0.74 0.66 0.54
0.65 0.77 0.82 0.85 0.86 0.82 0.75 0.72 0.76 0.74 0.72 0.84 1.00 1.16 1.20 1.19 1.13 1.17 1.21 1.24 1.17 1.04 1.00 1.02 1.04 1.17 1.40 1.45 1.38 1.47 1.56 1.54 1.62 1.70 1.66 1.47 1.24 1.03 0.84 0.75 0.74 0.78 0.70
0.54 0.64 0.80 0.87 0.80 0.75 0.67 0.66 0.69 0.67 0.64 0.70 0.84 1.03 1.12 1.10 1.48 1.44 1.26 1.24 1.20 1.05 0.95 0.94 0.90 0.91 1.09 1.34 1.42 1.46 1.56 1.62 1.59 1.54 1.53 1.41 1.29 1.17 1.08 0.97 0.83 0.75 0.78
0.48 0.60 0.80 0.81 0.70 0.65 0.70 0.74 0.71 0.68 0.68 0.71 0.74 0.78 0.87 1.14 1.19 0.98 1.00 1.03 1.10 1.02 0.90 0.82 0.72 0.70 0.82 0.90 1.01 1.08 1.28 1.55 1.65 1.56 1.38 1.29 1.31 1.21 1.12 1.02 0.92 0.84 0.80
0.41 0.50 0.65 0.67 0.66 0.69 0.69 0.67 0.62 0.58 0.56 0.59 0.61 0.65 0.72 0.86 0.86 0.80 0.87 0.81 0.93 0.91 0.82 0.77 0.72 0.68 0.74 0.81 0.90 0.98 1.04 1.14 1.30 1.25 1.15 1.14 1.17 1.18 1.11 1.05 1.04 0.98 0.89
0.28 0.36 0.46 0.49 0.54 0.56 0.55 0.56 0.52 0.48 0.50 0.51 0.54 0.62 0.70 0.70 0.72 0.69 0.74 0.83 0.97 0.91 0.79 0.78 0.73 0.71 0.87 0.93 0.86 0.87 1.00 1.03 1.14 1.21 1.30 1.28 1.13 1.03 1.01 0.97 0.99 0.98 0.97
0.20 0.27 0.34 0.37 0.41 0.43 0.48 0.51 0.51 0.48 0.46 0.46 0.47 0.51 0.60 0.63 0.75 0.62 0.69 0.86 0.97 0.97 0.92 0.84 0.90 0.87 0.96 0.93 0.84 0.90 1.02 0.90 0.85 0.91 0.97 0.99 0.88 0.80 0.85 0.81 0.87 0.91 0.86
0.11 0.16 0.23 0.30 0.37 0.45 0.51 0.52 0.55 0.52 0.47 0.46 0.52 0.54 0.54 0.63 0.75 0.70 0.71 0.78 0.96 0.98 0.99 0.96 0.85 0.90 0.87 0.90 0.93 0.97 1.13 0.95 0.81 0.84 0.93 0.92 0.80 0.72 0.71 0.72 0.76 0.81 0.79
0.06 0.11 0.18 0.26 0.33 0.42 0.51 0.54 0.54 0.54 0.53 0.54 0.55 0.58 0.57 0.56 0.62 0.66 0.67 0.73 0.84 0.86 0.93 0.89 0.81 0.83 0.70 0.72 0.76 0.90 1.11 0.98 0.78 0.81 0.88 0.90 0.82 0.75 0.71 0.67 0.66 0.66 0.66
0.02 0.06 0.11 0.15 0.19 0.25 0.32 0.41 0.47 0.51 0.53 0.53 0.58 0.66 0.68 0.61 0.64 0.73 0.59 0.56 0.63 0.67 0.68 0.75 0.71 0.66 0.59 0.55 0.62 0.72 0.83 0.94 0.90 0.82 0.77 0.74 0.73 0.70 0.67 0.60 0.56 0.54 0.51
0.01 0.03 0.05 0.06 0.07 0.10 0.20 0.28 0.35 0.42 0.47 0.55 0.62 0.70 0.78 0.72 0.65 0.59 0.50 0.47 0.49 0.48 0.44 0.44 0.46 0.48 0.47 0.49 0.53 0.56 0.67 0.84 0.92 0.84 0.72 0.68 0.68 0.65 0.62 0.53 0.51 0.53 0.50
0.01 0.01 0.02 0.04 0.06 0.08 0.14 0.22 0.27 0.34 0.37 0.41 0.52 0.64 0.68 0.66 0.65 0.70 0.67 0.63 0.60 0.58 0.53 0.45 0.41 0.43 0.48 0.52 0.54 0.54 0.60 0.69 0.74 0.71 0.64 0.59 0.60 0.63 0.61 0.53 0.46 0.42 0.40
0.06 0.03 0.02 0.03 0.06 0.08 0.11 0.13 0.13 0.16 0.16 0.20 0.25 0.30 0.34 0.37 0.39 0.38 0.44 0.51 0.51 0.49 0.60 0.63 0.60 0.62 0.61 0.59 0.59 0.53 0.48 0.51 0.60 0.63 0.59 0.52 0.51 0.54 0.56 0.51 0.47 0.43 0.38
0.14 0.11 0.07 0.05 0.05 0.06 0.07 0.10 0.11 0.07 0.05 0.07 0.08 0.14 0.20 0.21 0.22 0.22 0.25 0.32 0.40 0.45 0.60 0.62 0.55 0.48 0.46 0.44 0.47 0.46 0.44 0.42 0.44 0.49 0.49 0.48 0.45 0.47 0.53 0.55 0.52 0.47 0.42
0.03 0.03 0.05 0.08 0.05 0.04 0.07 0.13 0.19 0.21 0.15 0.08 0.04 0.06 0.11 0.14 0.16 0.18 0.20 0.25 0.27 0.31 0.41 0.48 0.43 0.37 0.32 0.31 0.30 0.28 0.30 0.33 0.35 0.37 0.40 0.41 0.43 0.45 0.47 0.53 0.57 0.53 0.48
0.01 0.03 0.09 0.10 0.06 0.05 0.10 0.18 0.20 0.19 0.18 0.12 0.06 0.03 0.04 0.06 0.08 0.10 0.13 0.19 0.18 0.16 0.18 0.27 0.30 0.28 0.24 0.19 0.15 0.14 0.14 0.15 0.18 0.23 0.28 0.32 0.34 0.39 0.43 0.46 0.48 0.52 0.52
0.02 0.02 0.09 0.14 0.08 0.08 0.10 0.10 0.10 0.12 0.10 0.07 0.06 0.05 0.04 0.06 0.07 0.05 0.05 0.08 0.09 0.08 0.10 0.14 0.17 0.18 0.16 0.15 0.12 0.09 0.10 0.11 0.11 0.14 0.18 0.24 0.26 0.27 0.31 0.37 0.42 0.44 0.43
0.06 0.03 0.03 0.14 0.17 0.14 0.12 0.10 0.11 0.13 0.09 0.05 0.03 0.01 0.02 0.05 0.07 0.06 0.05 0.06 0.07 0.08 0.09 0.09 0.10 0.14 0.13 0.12 0.11 0.11 0.10 0.10 0.09 0.11 0.12 0.14 0.16 0.18 0.20 0.22 0.25 0.30 0.34
0.02 0.03 0.04 0.13 0.18 0.14 0.11 0.11 0.12 0.10 0.08 0.05 0.03 0.01 0.02 0.04 0.05 0.06 0.05 0.06 0.07 0.08 0.08 0.06 0.08 0.11 0.12 0.10 0.09 0.11 0.11 0.10 0.08 0.09 0.11 0.13 0.13 0.12 0.12 0.13 0.14 0.16 0.19
0.01 0.02 0.03 0.07 0.08 0.04 0.05 0.08 0.09 0.09 0.06 0.04 0.03 0.02 0.02 0.03 0.04 0.04 0.04 0.07 0.10 0.11 0.08 0.06 0.08 0.12 0.14 0.14 0.12 0.13 0.13 0.12 0.11 0.09 0.10 0.12 0.13 0.14 0.13 0.12 0.12 0.14 0.16
0.01 0.01 0.02 0.04 0.04 0.05 0.08 0.09 0.07 0.06 0.06 0.04 0.03 0.03 0.04 0.05 0.04 0.04 0.05 0.07 0.10 0.11 0.08 0.07 0.07 0.09 0.12 0.15 0.16 0.16 0.15 0.14 0.11 0.08 0.08 0.09 0.11 0.12 0.13 0.13 0.15 0.16 0.19
0.02 0.01 0.02 0.03 0.04 0.05 0.05 0.07 0.07 0.06 0.07 0.06 0.05 0.04 0.04 0.05 0.06 0.04 0.03 0.04 0.06 0.06 0.05 0.05 0.07 0.11 0.13 0.14 0.16 0.18 0.23 0.22 0.16 0.12 0.09 0.09 0.10 0.12 0.13 0.16 0.18 0.21 0.24
0.02 0.01 0.02 0.04 0.05 0.06 0.06 0.07 0.06 0.06 0.07 0.07 0.06 0.06 0.06 0.06 0.05 0.04 0.04 0.04 0.04 0.04 0.07 0.07 0.08 0.11 0.14 0.14 0.12 0.12 0.14 0.14 0.13 0.13 0.10 0.09 0.10 0.12 0.14 0.17 0.21 0.26 0.30